Temperature
28 28 27 26 26 26 27 27 27 25 24 24 23 21 21 20 20 19 19 19 18 17 17 16 15 15 14 14 14 14 15 15 15 15 15 15 16 16 17 17 17 18 18 18
28 26 26 26 27 26 26 26 26 25 24 24 23 22 21 20 20 19 18 18 17 16 16 15 15 14 14 13 13 13 14 14 14 14 14 14 15 15 16 16 17 17 17 18
27 25 26 26 26 26 26 25 25 24 23 23 22 21 20 20 20 19 18 17 17 16 16 15 14 14 13 13 12 13 13 13 13 13 14 14 14 15 15 15 16 16 16 17
26 25 26 26 25 24 24 24 24 23 23 23 23 21 20 20 19 19 18 17 16 16 15 15 14 13 13 12 12 12 13 13 13 13 13 13 14 14 14 15 15 16 16 16
25 25 25 24 23 23 23 23 23 23 23 23 23 22 20 20 19 18 18 17 16 16 15 14 14 13 12 12 12 12 12 12 13 13 13 13 13 14 14 14 15 15 15 16
24 24 23 23 23 23 23 23 23 23 23 22 23 22 19 19 18 18 18 17 16 15 15 14 14 13 13 12 12 12 12 12 13 13 13 13 13 13 14 14 14 15 15 15
24 24 23 23 23 24 23 23 22 22 21 22 23 22 19 18 18 18 18 17 16 15 15 14 14 13 13 12 12 12 12 12 12 13 13 13 13 13 13 14 14 14 15 15
26 24 23 22 22 22 23 23 22 21 23 22 22 21 18 19 18 18 17 17 16 16 15 14 14 14 13 13 12 12 12 12 12 12 12 13 13 13 13 13 13 14 14 14
26 23 22 22 22 22 22 23 24 22 23 23 23 20 19 19 19 18 17 17 16 16 15 15 14 14 13 13 13 13 12 12 12 12 12 13 13 13 13 13 13 13 14 14
26 24 23 22 21 22 22 21 22 22 22 21 23 22 19 18 19 18 17 17 16 16 15 15 15 14 14 14 13 13 13 12 12 12 12 12 12 13 13 13 13 13 13 14
26 25 23 23 23 22 22 22 22 23 23 21 20 19 20 19 18 18 17 16 16 16 15 15 15 15 14 14 13 13 13 12 12 12 12 12 12 12 12 12 13 13 13 13
25 25 25 23 22 21 21 21 21 21 22 22 21 19 19 19 18 17 17 16 16 16 16 15 15 15 15 14 14 13 13 12 12 12 12 12 12 12 12 12 12 12 13 13
24 24 24 22 20 20 22 21 21 21 21 22 21 19 19 18 18 17 17 17 16 16 16 16 16 15 15 14 14 14 13 12 12 12 12 12 12 12 11 12 12 12 12 12
21 24 24 23 22 23 22 21 21 20 20 21 22 20 19 19 18 18 17 17 17 17 17 16 16 16 15 15 14 14 13 13 12 12 12 12 11 11 11 11 11 11 11 12
23 24 25 24 23 23 23 22 22 21 21 21 21 21 21 20 19 18 18 17 17 17 17 17 16 16 16 15 15 14 13 13 13 12 12 11 11 11 11 11 11 11 11 11
24 24 24 24 24 23 23 23 23 22 22 21 21 21 22 20 19 19 18 18 18 17 17 17 16 16 16 16 15 14 14 13 13 12 12 11 11 11 11 11 11 11 11 11
25 24 24 24 25 23 23 25 24 23 23 22 21 22 21 20 20 19 19 18 18 18 17 17 16 16 16 16 15 15 14 13 13 12 12 11 11 11 11 11 11 10 10 10
25 24 24 24 25 24 24 25 25 24 23 23 22 22 21 20 20 19 18 18 18 18 17 17 16 16 16 16 16 15 15 14 13 12 12 11 11 11 11 10 10 10 10 10
24 23 23 24 24 25 24 24 24 23 23 24 23 22 21 20 20 19 18 18 18 17 17 17 16 16 16 16 15 15 15 14 13 12 12 11 11 11 10 10 10 10 10 9
23 23 22 23 23 25 24 24 24 23 22 25 24 23 22 20 19 20 19 18 18 17 17 16 16 16 16 15 15 16 15 14 13 12 12 11 11 11 10 10 10 10 10 9
22 22 21 21 22 25 24 23 23 22 23 24 24 23 22 21 20 20 19 18 17 17 16 16 16 16 15 15 15 16 15 14 13 12 11 11 11 11 10 10 10 10 10 10
24 24 24 23 23 24 22 22 23 24 24 24 23 23 22 21 21 19 19 18 17 17 16 16 16 16 16 15 15 15 14 13 13 12 11 11 11 11 10 10 10 10 10 9
25 25 25 25 25 23 22 23 24 24 23 24 23 23 22 21 21 19 18 18 17 17 17 16 16 16 16 16 15 15 14 13 13 12 12 11 11 11 10 10 10 10 9 9
27 26 25 24 25 26 25 24 23 23 23 23 23 22 22 21 21 20 19 18 17 17 17 17 16 16 16 16 15 14 14 13 13 13 12 12 12 11 11 11 10 10 10 10
25 25 24 24 25 26 26 25 24 23 22 22 22 22 21 21 20 20 19 18 18 17 17 17 16 16 16 16 15 15 14 14 13 13 13 12 12 11 11 11 10 10 10 10
26 26 24 24 26 26 26 25 24 23 22 22 22 21 21 21 20 20 19 19 18 18 17 17 17 16 16 16 16 15 14 14 14 14 13 13 12 12 11 11 11 11 10 10
Wind_Speed
2 2 6 8 8 9 11 12 10 6 5 3 4 4 5 4 6 9 10 10 11 12 13 13 12 12 12 12 12 13 12 10 8 5 5 5 5 4 4 4 6 6 7 8
5 4 6 5 6 9 10 12 9 6 5 2 2 4 6 4 6 7 9 11 11 12 12 12 13 14 13 13 13 14 13 11 10 7 7 6 6 5 5 4 4 7 8 7
6 6 3 5 6 9 11 7 9 6 1 3 4 5 8 6 6 7 9 10 11 12 13 13 13 12 13 13 14 14 13 12 10 9 7 7 6 6 5 5 5 5 6 6
5 4 4 5 5 8 8 8 6 6 6 5 7 3 10 7 6 7 9 9 10 11 11 11 12 13 13 13 13 13 12 12 11 10 7 8 6 6 7 6 5 5 5 5
5 5 6 6 6 7 6 7 7 8 8 10 7 4 7 6 5 7 8 9 9 10 10 10 11 11 12 12 11 11 11 10 10 10 8 7 6 6 6 6 6 6 5 4
7 4 5 5 3 3 5 7 9 8 8 8 5 3 6 4 5 6 7 8 9 9 10 10 10 9 9 10 10 10 10 11 11 11 10 8 8 8 8 7 6 5 4 3
7 6 4 3 7 5 5 7 5 5 6 2 3 1 6 6 5 5 6 7 7 7 8 8 9 9 9 10 10 10 10 10 10 10 10 10 9 9 8 7 7 6 4 3
7 6 4 5 6 6 6 6 6 6 4 2 4 3 7 6 4 3 5 6 7 7 7 7 7 7 8 8 8 9 10 9 9 9 9 9 9 7 6 7 6 6 5 5
4 6 4 3 3 4 7 6 6 6 11 6 5 8 7 6 3 3 4 5 7 7 7 7 6 6 6 6 6 6 8 8 9 8 8 8 9 8 8 8 7 6 6 5
5 4 4 2 4 4 3 6 6 5 6 5 1 4 5 5 1 3 4 4 5 6 7 7 6 6 5 5 5 6 6 7 7 8 7 6 7 7 7 7 8 7 6 6
7 2 6 4 1 3 4 3 4 6 4 3 4 3 5 4 2 2 3 3 4 5 6 6 5 5 5 5 5 6 7 7 7 8 7 7 7 7 7 8 8 8 8 8
3 5 4 6 5 2 2 4 6 5 7 3 2 3 6 4 2 1 1 1 2 3 4 4 5 5 5 6 5 5 6 7 7 7 7 7 7 8 8 8 9 9 9 9
5 5 1 5 4 4 3 0 4 6 6 5 3 4 6 4 4 3 2 1 2 3 3 3 4 4 4 5 5 4 6 6 6 7 7 7 7 8 8 9 9 9 9 10
4 5 4 5 4 1 1 2 3 5 4 6 3 3 7 6 5 5 4 3 3 3 3 3 4 4 3 3 4 4 5 5 6 6 7 7 7 7 7 8 8 9 9 9
4 5 2 1 1 3 5 5 6 7 7 6 6 4 1 5 4 4 4 4 4 3 3 4 5 5 4 2 2 3 3 4 5 5 6 7 6 7 7 7 8 8 9 10
4 6 4 7 7 6 10 10 9 9 9 8 7 5 2 6 5 5 6 5 4 3 3 4 5 6 5 3 2 2 3 3 3 5 6 6 7 7 7 7 7 7 7 8
4 6 6 6 6 6 9 8 11 9 7 6 7 2 8 6 6 5 4 4 4 2 2 3 5 5 5 4 3 3 3 2 3 5 5 5 6 6 7 7 7 7 7 7
4 4 4 7 5 6 5 5 1 5 7 7 6 2 6 5 4 4 3 4 4 3 2 3 5 6 5 5 4 1 3 2 3 6 5 5 5 6 7 7 7 7 6 6
5 5 4 4 6 7 6 4 2 4 7 10 10 8 7 6 6 7 9 7 5 2 1 2 4 6 5 6 6 3 3 4 5 6 5 6 6 6 7 7 7 6 5 5
5 5 5 5 5 3 7 8 4 2 5 6 10 10 10 9 5 6 10 8 6 3 0 2 4 5 5 6 6 5 4 6 6 6 5 5 5 6 6 6 6 5 5 5
4 5 6 6 5 3 8 8 4 2 4 4 5 9 11 10 5 5 11 9 6 5 2 2 4 3 3 4 6 5 6 7 6 5 4 5 5 4 5 5 5 4 4 4
5 4 5 5 5 0 8 6 5 3 2 1 3 6 9 9 7 8 8 8 7 6 5 3 4 2 0 1 5 4 6 5 5 3 3 3 4 5 4 3 3 4 5 5
4 3 3 3 2 5 8 7 6 4 6 3 3 5 8 9 9 9 8 7 7 6 6 5 3 3 3 2 3 4 4 3 3 3 3 1 2 2 1 3 4 4 5 5
4 3 2 5 6 6 8 10 9 6 6 6 2 5 7 9 9 9 9 8 7 7 6 5 5 6 3 4 3 0 1 1 3 3 2 2 1 2 2 2 4 4 5 5
5 2 4 6 9 9 6 8 9 8 8 7 5 6 8 9 9 9 8 8 8 7 6 5 5 4 2 2 4 4 3 2 2 3 4 3 2 1 1 4 3 4 4 3
9 9 7 6 6 5 5 2 4 7 9 9 7 7 8 9 9 9 9 8 8 7 7 7 7 6 6 5 3 4 4 3 5 4 3 2 3 2 1 3 3 1 1 3
Wind_Direction
259 293 44 21 360 329 316 303 302 107 105 56 101 121 109 70 41 24 13 15 14 8 5 6 360 0 355 350 341 331 327 327 325 321 311 305 299 292 277 259 251 234 226 229
198 79 38 348 327 309 298 296 302 116 98 11 193 167 122 91 62 42 20 12 13 4 1 2 1 2 355 350 343 338 339 336 334 326 318 304 298 289 275 269 263 249 235 227
67 63 12 324 329 332 307 331 340 345 66 239 240 195 149 132 80 53 34 19 13 4 1 359 360 1 354 352 346 341 339 335 333 334 330 320 315 304 293 286 274 261 251 231
74 49 339 314 5 350 330 29 337 306 282 247 203 239 150 140 86 48 32 21 13 9 5 4 4 360 356 353 348 344 345 344 343 337 329 323 312 306 301 303 296 285 267 254
97 36 355 354 17 339 337 332 296 277 267 273 232 238 139 133 56 31 26 20 19 13 9 11 10 2 359 357 353 351 355 354 351 347 343 333 323 311 306 308 307 305 289 274
97 79 35 3 319 283 295 275 254 248 257 258 233 237 118 79 38 14 20 23 21 13 11 13 11 2 1 1 359 358 3 3 358 356 354 353 345 340 339 338 330 323 310 299
155 133 108 351 307 214 257 287 277 227 214 217 105 144 93 90 56 17 22 24 17 17 11 9 7 2 0 3 1 1 5 5 3 2 5 3 360 354 353 348 338 333 329 329
202 134 77 30 1 332 315 301 314 317 325 134 181 105 112 106 99 44 46 27 11 18 13 10 7 359 357 359 357 0 3 5 5 6 7 8 8 3 358 354 350 351 352 350
350 98 109 59 356 327 318 330 338 302 291 286 133 119 134 141 131 81 52 27 17 14 13 8 7 357 353 351 356 1 4 9 6 5 7 8 8 5 4 3 4 4 359 360
328 109 118 137 227 194 311 322 309 293 333 335 27 115 128 141 92 62 62 34 20 10 6 1 356 355 349 350 358 6 15 16 4 3 4 5 0 360 3 4 2 0 0 6
304 244 148 190 10 10 327 287 305 291 270 314 336 64 84 94 82 32 48 39 14 4 354 346 347 353 356 358 13 14 16 17 6 359 357 5 3 359 12 9 4 8 7 12
336 305 148 115 91 61 339 343 331 324 341 328 291 109 98 103 113 141 50 12 359 339 334 334 349 351 4 1 10 19 18 13 7 2 1 12 14 11 18 17 11 17 16 14
348 297 229 151 157 189 214 352 309 299 288 298 340 113 141 154 167 182 197 260 281 295 320 342 349 341 1 4 3 28 27 9 8 9 10 15 21 18 20 18 10 18 22 19
317 277 340 3 29 23 206 211 261 294 301 311 12 100 169 179 182 187 196 223 260 290 322 352 343 337 349 14 0 29 36 11 13 18 18 12 18 19 18 21 14 17 22 27
267 291 22 25 280 286 281 260 238 251 276 299 354 350 302 148 165 187 199 218 245 279 320 357 343 347 354 8 5 40 52 27 16 26 27 12 14 24 16 24 21 24 27 30
254 297 287 258 221 250 267 257 244 244 257 270 284 280 153 134 162 189 200 214 236 267 333 355 346 351 347 354 35 64 65 44 18 42 40 20 18 20 16 24 22 25 38 36
232 279 303 299 164 255 265 243 225 226 231 246 262 264 135 168 192 202 205 210 242 269 334 345 346 337 326 352 38 67 67 61 30 50 47 34 24 20 16 19 23 23 33 43
305 303 297 289 268 279 89 62 112 225 237 229 243 193 157 189 171 181 210 215 242 260 320 357 344 329 340 16 17 85 119 98 64 55 39 36 36 27 20 16 24 28 22 29
299 301 289 290 311 291 144 137 153 227 262 230 214 208 181 186 188 205 200 198 211 223 352 346 336 323 8 19 352 342 96 86 68 60 42 33 33 34 24 18 18 27 17 11
244 273 273 293 295 324 100 113 121 254 268 214 191 192 181 178 223 226 175 170 181 177 203 356 319 327 23 3 329 321 77 78 66 54 48 37 36 45 32 19 12 14 11 359
192 217 234 262 277 311 113 123 146 257 26 49 178 183 182 189 215 116 139 155 163 163 180 275 294 335 40 347 318 337 64 75 78 59 46 35 20 53 66 20 1 7 358 343
213 224 216 226 251 224 134 155 208 284 37 273 212 189 186 186 170 136 148 154 165 174 187 224 276 309 104 325 323 16 69 80 97 95 60 46 41 22 34 25 355 352 349 351
214 277 328 298 347 124 187 211 238 288 298 280 187 189 185 185 177 162 165 168 182 195 192 195 230 279 265 130 35 13 78 107 142 159 157 184 151 126 40 358 7 11 8 8
199 168 259 287 283 259 214 215 237 242 254 281 211 189 189 191 186 174 176 180 190 206 203 183 213 242 232 134 145 191 106 191 197 176 181 197 162 112 111 59 31 35 24 13
333 161 229 260 270 268 233 205 222 231 230 245 233 205 197 193 194 186 187 187 190 201 193 181 222 250 279 217 192 170 166 240 224 188 199 190 149 117 100 108 66 59 83 73
263 240 222 247 314 343 359 101 206 229 228 228 225 218 202 197 201 197 196 190 188 197 198 194 208 219 234 226 191 151 155 232 253 220 188 176 171 152 153 150 138 58 120 156
Height
1522 1521 1527 1530 1529 1530 1528 1528 1529 1533 1535 1538 1543 1549 1553 1557 1559 1560 1559 1558 1558 1557 1555 1552 1549 1545 1541 1537 1534 1530 1527 1524 1522 1520 1519 1518 1516 1516 1515 1515 1515 1515 1516 1518
1522 1529 1532 1530 1530 1530 1529 1530 1529 1532 1536 1538 1543 1548 1552 1557 1559 1561 1560 1560 1558 1557 1554 1551 1548 1544 1540 1536 1532 1528 1524 1521 1519 1517 1515 1514 1513 1511 1511 1510 1510 1510 1511 1511
1527 1535 1533 1532 1531 1533 1530 1532 1534 1536 1537 1538 1543 1549 1552 1555 1558 1560 1560 1560 1559 1557 1554 1551 1547 1543 1539 1534 1530 1526 1521 1518 1516 1513 1511 1509 1508 1507 1507 1506 1506 1506 1506 1506
1530 1534 1534 1533 1534 1539 1537 1537 1538 1538 1542 1541 1542 1554 1554 1553 1557 1559 1560 1560 1559 1557 1554 1551 1547 1543 1538 1534 1529 1524 1520 1517 1513 1510 1508 1506 1504 1503 1503 1502 1502 1501 1501 1501
1535 1536 1536 1537 1541 1543 1541 1540 1539 1538 1540 1541 1537 1546 1555 1552 1558 1559 1559 1559 1558 1557 1554 1551 1547 1543 1539 1534 1529 1524 1520 1516 1512 1509 1506 1503 1502 1500 1499 1499 1498 1497 1497 1497
1537 1539 1541 1543 1542 1542 1541 1540 1537 1536 1539 1547 1535 1543 1557 1555 1559 1559 1559 1559 1559 1557 1555 1552 1548 1544 1539 1534 1529 1525 1520 1516 1512 1509 1505 1503 1501 1499 1497 1496 1495 1494 1493 1493
1538 1538 1541 1543 1540 1538 1538 1542 1547 1547 1553 1545 1534 1541 1558 1556 1557 1558 1559 1559 1559 1557 1555 1552 1548 1544 1539 1535 1530 1526 1521 1517 1513 1510 1506 1503 1501 1498 1496 1495 1493 1492 1491 1491
1531 1542 1543 1544 1545 1545 1539 1541 1551 1556 1546 1543 1538 1543 1557 1553 1556 1557 1558 1559 1558 1557 1555 1552 1549 1545 1541 1536 1532 1528 1523 1519 1515 1512 1508 1505 1502 1499 1497 1495 1493 1492 1491 1490
1527 1545 1545 1546 1546 1545 1543 1537 1536 1545 1537 1536 1535 1546 1552 1552 1554 1556 1557 1558 1558 1557 1555 1552 1549 1545 1542 1538 1534 1530 1526 1522 1518 1514 1511 1507 1504 1501 1499 1497 1495 1493 1492 1491
1527 1539 1542 1545 1546 1545 1545 1545 1543 1544 1549 1551 1540 1541 1550 1552 1553 1554 1556 1558 1558 1557 1555 1552 1549 1546 1542 1539 1535 1532 1528 1524 1521 1517 1513 1510 1508 1505 1502 1500 1498 1496 1495 1493
1529 1532 1543 1543 1544 1547 1545 1543 1542 1540 1539 1552 1557 1558 1547 1550 1553 1554 1556 1557 1557 1556 1554 1552 1549 1546 1543 1540 1536 1533 1529 1526 1523 1519 1517 1514 1511 1508 1506 1503 1501 1499 1497 1496
1533 1533 1534 1541 1545 1546 1547 1548 1548 1552 1547 1541 1549 1559 1548 1551 1553 1554 1555 1556 1556 1555 1554 1551 1549 1546 1543 1540 1537 1534 1531 1528 1524 1521 1519 1516 1513 1511 1509 1506 1504 1502 1500 1499
1536 1538 1541 1549 1553 1550 1546 1547 1548 1548 1546 1542 1550 1556 1548 1550 1551 1553 1554 1555 1555 1554 1552 1551 1549 1546 1543 1540 1538 1535 1532 1529 1526 1523 1521 1518 1515 1513 1511 1509 1507 1505 1503 1501
1543 1536 1541 1551 1548 1542 1543 1546 1548 1550 1551 1546 1542 1545 1546 1546 1548 1551 1552 1553 1553 1552 1551 1550 1548 1545 1543 1540 1538 1535 1533 1530 1528 1525 1522 1520 1518 1515 1513 1511 1509 1507 1505 1503
1542 1535 1534 1538 1539 1540 1540 1542 1544 1547 1545 1545 1541 1542 1540 1542 1546 1548 1550 1551 1551 1551 1550 1549 1547 1545 1543 1540 1538 1535 1533 1531 1529 1526 1524 1521 1520 1517 1515 1513 1511 1509 1507 1505
1539 1537 1535 1536 1534 1537 1538 1535 1536 1539 1540 1540 1540 1540 1536 1540 1544 1546 1548 1549 1549 1549 1549 1548 1547 1545 1543 1540 1538 1536 1534 1532 1530 1528 1525 1523 1521 1519 1517 1515 1513 1511 1508 1506
1535 1536 1538 1535 1529 1535 1535 1524 1528 1532 1532 1536 1539 1535 1535 1539 1542 1544 1545 1547 1548 1548 1548 1548 1546 1545 1542 1540 1538 1536 1534 1532 1531 1529 1527 1524 1522 1520 1518 1516 1514 1512 1510 1507
1534 1536 1537 1536 1532 1541 1529 1520 1521 1526 1528 1529 1531 1533 1535 1538 1540 1542 1544 1545 1547 1547 1547 1547 1546 1544 1542 1540 1538 1536 1534 1533 1531 1529 1528 1526 1523 1521 1519 1517 1515 1513 1511 1509
1537 1538 1541 1537 1538 1530 1525 1522 1523 1528 1528 1523 1527 1530 1533 1536 1539 1540 1541 1543 1545 1546 1546 1546 1545 1544 1542 1540 1538 1536 1534 1533 1532 1530 1528 1526 1524 1522 1520 1518 1516 1514 1512 1510
1539 1539 1543 1540 1543 1535 1527 1522 1523 1528 1528 1518 1521 1526 1530 1535 1538 1536 1536 1540 1543 1544 1545 1545 1544 1543 1542 1540 1538 1537 1535 1533 1531 1530 1529 1527 1525 1523 1521 1519 1517 1515 1513 1512
1541 1541 1545 1546 1543 1524 1522 1523 1526 1535 1529 1520 1520 1523 1527 1531 1535 1533 1534 1538 1541 1542 1543 1543 1543 1543 1541 1539 1538 1537 1535 1533 1532 1530 1529 1528 1526 1524 1522 1520 1518 1516 1515 1513
1530 1532 1533 1535 1538 1532 1523 1524 1525 1524 1521 1521 1521 1523 1525 1529 1532 1533 1535 1537 1539 1541 1541 1542 1542 1542 1540 1539 1538 1537 1535 1533 1532 1531 1530 1528 1527 1525 1523 1521 1519 1518 1516 1514
1523 1522 1523 1524 1525 1520 1520 1520 1520 1520 1520 1519 1520 1522 1524 1526 1529 1531 1534 1536 1538 1539 1540 1540 1540 1540 1539 1538 1537 1536 1535 1533 1532 1531 1530 1529 1528 1526 1524 1522 1521 1519 1517 1515
1514 1517 1521 1522 1517 1515 1515 1516 1517 1518 1518 1518 1519 1520 1522 1524 1527 1529 1531 1534 1535 1537 1538 1538 1538 1538 1538 1537 1536 1535 1534 1533 1532 1531 1530 1529 1529 1527 1526 1524 1522 1519 1517 1515
1516 1517 1520 1520 1515 1512 1511 1512 1513 1514 1515 1516 1517 1518 1519 1522 1524 1526 1528 1531 1532 1534 1535 1536 1536 1537 1536 1536 1535 1534 1533 1532 1532 1531 1530 1529 1528 1527 1526 1525 1523 1521 1518 1516
1514 1513 1517 1518 1512 1511 1510 1510 1511 1511 1512 1513 1515 1516 1517 1518 1521 1523 1525 1527 1529 1531 1532 1533 1533 1534 1534 1534 1534 1532 1531 1531 1530 1530 1530 1529 1528 1527 1526 1525 1523 1522 1520 1518